Regional Weather Roundup
Issued by NWS

Home | Current Version | Previous Version | Graphics & Text | Print | Product List | Glossary On
Versions: 1 2 3 4 5 6 7 8 9 10 11 12 13 14 15 16 17 18 19 20 21 22 23 24 25 26 27 28 29 30 31 32 33 34 35 36 37 38 39 40 41 42 43 44 45 46 47 48 49 50
000
ASUS44 KMEG 292300
RWRTN
TENNESSEE HOURLY STATE WEATHER ROUNDUP
NATIONAL WEATHER SERVICE MEMPHIS TN
600 PM CDT FRI JUL 29 2016

TNZ002-004-019-021-049-052-054-088>092-300000-
WEST TENNESSEE

CITY           SKY/WX    TMP DP  RH WIND       PRES   REMARKS
MEMPHIS INTL   TSTM      74  70  87 NW12      29.98R VSB 3/4
NWS MEMPHIS      N/A     76 N/A N/A MISG        N/A
JACKSON        CLOUDY    84  77  79 VRB3      29.91F HX  94
DYERSBURG      CLOUDY   N/A N/A N/A MISG        N/A
UNION CITY     MOSUNNY   84  79  84 SW8       29.90S HX  96
PARIS          MOSUNNY   82  75  78 SW8       29.92F
LEXINGTON      MOSUNNY   77  72  83 CALM      29.92F
$$

TNZ008-025-027-028-033-062-065-066-300000-
NORTH MIDDLE TENNESSEE

CITY           SKY/WX    TMP DP  RH WIND       PRES   REMARKS
NASHVILLE      PTSUNNY   84  72  67 W7        29.93S
CLARKSVILLE    PTSUNNY   77  68  73 N7        29.93R
COOKEVILLE     SUNNY     81  72  74 SW3       29.95F
CROSSVILLE     SUNNY     77  68  73 W6        30.01F
$$

TNZ061-075-076-078-094-096-097-300000-
SOUTH MIDDLE TENNESSEE

CITY           SKY/WX    TMP DP  RH WIND       PRES   REMARKS
TULLAHOMA      MOSUNNY   84  72  65 SW8       29.98S
WINCHESTER     SUNNY     84  72  65 W7        29.97S
MCMINNVILLE    SUNNY     82  75  78 SE3G86    29.96S SQUALL
COLUMBIA       MOSUNNY   88  73  62 SW6       29.92S HX  96
SHELBYVILLE    MOSUNNY   88  73  62 SW6       29.96S HX  96
$$

TNZ017-018-042-046-047-300000-
NORTHEAST TENNESSEE

CITY           SKY/WX    TMP DP  RH WIND       PRES   REMARKS
TRI CITIES     NOT AVBL
$$

TNZ012-013-036-069-073-074-300000-
CENTRAL EAST TENNESSEE

CITY           SKY/WX    TMP DP  RH WIND       PRES   REMARKS
KNOXVILLE      PTSUNNY   80  72  76 NE6       29.94F
OAK RIDGE      MOSUNNY   82  71  69 VRB3      29.97S
GATLINBURG     SUNNY     75  70  83 CALM      29.97F
$$

TNZ083-085-099-300000-
SOUTHEAST TENNESSEE

CITY           SKY/WX    TMP DP  RH WIND       PRES   REMARKS
CHATTANOOGA    CLOUDY    89  69  51 SW8       29.94R HX  93
$$

SKY/WX REPORTED AS FAIR MEANS FEW OR NO CLOUDS BELOW
12 THOUSAND FEET.




USA.gov is the U.S. government's official web portal to all federal, state and local government web resources and services.